STARLINK-3902, 52487

Orbit data source: Space-Track

STARLINK-3902, 52487 is a payload satellite owned by SpaceX/Seattle (US) in LEO that was launched on Fri, 06 May 2022 UTC via an FALCON 9 launch vehicle from the Air Force Eastern Test Range (AFETR). Payload-class satellites include a variety of spacecraft equipped with specific instruments for various scientific and technological missions. These include communications satellites like Starlink; space stations such as the ISS; scientific satellites like the Hubble; Earth observation satellites from companies like Planet Labs, Umbra, and HawkEye 360; GPS; miniature CubeSats for education and research; and military/defense satellites.

Loading next visibility...
Identifier
52487, 2022-049AN
Orbit
LEO
Country
Flag of USUS
Related business
Manufacturer
SpaceX/Seattle
Mission
Operational Commercial Communications
Bus & Motor
STARLINK, Unknown motor
Mass
297 kg wet, ~220 kg dry
Launch date (UTC)
2022-05-06 (4 years ago)
Launch vehicle
FALCON 9
Launch site
Air Force Eastern Test Range (AFETR)
Object type
Payload
Rocket body
Debris
Shape & HBR
Box + 1 Pan, 10.1 m
Radar Cross Section
13.562 m², Large (>1 m²)

Expand to show TLE details & history
Last TLE update: 18 hours ago

TLE from 18 hours ago
0 STARLINK-3902
1 52487U 22049AN  25346.68169736 -.00000627  00000-0 -21303-4 0  9999
2 52487  53.2191  79.8183 0001406 105.0671 255.0477 15.08826329200495
Epoch: 2025-12-12T16:21Z
TLE epoch observation values (Epoch: 2025-12-12T16:21:38.651Z)
Latitude
-0.00003°
Longitude
112.78741°
Altitude
540.934 km
Speed
7.593 km/s
True Right ascension
05h 19m 16s
True Declination
0° 00' 00"
Sunlit
Object was in full shadow at epoch
Visualization orbit readout
Latitude
Unknown
Longitude
Unknown
Altitude
Unknown
Speed
Unknown
Apparent Right ascension
Unknown
Apparent Declination
Unknown
Sunlit
N/A
Visualization observer readout
Local Sidereal Time
09:16:24
Azimuth
Unknown
Elevation
Unknown
Doppler factor
Unknown
Orbital elements
Apogee altitude
541.003 km
Perigee altitude
539.057 km
Semi-major axis
6,918.167 km
Eccentricity
0.00014
Inclination
53.2191°
RAAN
79.8183°
Arg. of periapsis
105.0671°
True anomaly
255.03213°
Mean anomaly
255.0477°
Eccentric anomaly
255.03992°
Mean motion
3.77187 °/min
Orbital period
95.44 mins
BSTAR
-0.000021303
Loading maneuver chart data...
Computing Atmospheric mass density...
Loading historical data...
Loading historical data...
Loading historical data...
Loading historical data...
Loading historical data...
Loading historical data...
Loading historical data...

Documentation

Showing up to 5 results
|